CAPE
3652 3664 2984 3031 3318 3368 3182 3214 3072 3012 3023 3043 3254 3271 3232 2926 2847 2161 2342 2145 2017 2300 2460 2658 2767 2752 2597 2564 1784 2153 2877 2913 2672 2841 3373 3458 3294 2990 2468 2615 3262 3486 3610 3194 2636 2705 3087 3308 3408 3412 3397 3259 3234 2982 2742 2775 3261 3464 3401 3576 3358 3531 3786 3855 3756 3630 3482 2997 2736 2703 2547 2757 2598 2808 2933 2838 2901 2898 2902 3197 3122 2862 2809 2759 2770
3677 3490 3428 3236 3228 3428 3229 3238 3053 3038 2949 3000 3192 3476 3283 3207 3048 2584 2065 2301 2172 2325 2791 2710 2573 2589 2576 2167 2135 1796 2565 2709 2551 2613 3033 3248 3375 2998 3084 2902 3092 3571 3464 3538 3452 3060 2950 3492 3620 3559 3496 3390 3050 2989 2782 2399 2492 3100 3271 3382 3516 3633 3660 3640 3708 3762 3736 3351 3375 3422 3268 3149 3040 3212 3496 3715 3763 3721 3357 3246 3138 3176 3448 3585 3426
3459 3731 3537 3583 3473 3388 3188 3226 3108 3194 3117 3097 3292 3364 3376 3278 2983 2840 2155 2299 2376 2459 2838 2846 2750 2873 2752 2539 2622 2249 2649 2651 2694 2604 2809 3257 3343 2929 2596 2948 3260 3512 3514 3500 3545 3749 3363 3286 3406 3511 3156 3102 3416 3345 2736 2503 2342 2414 2435 2846 3152 3384 3476 3597 3659 3635 3486 3590 3545 3444 3461 3512 3628 3675 3662 3633 4022 4065 4173 4052 3643 3670 3625 3343 3100
3385 3756 3660 3662 3265 3164 3261 3242 2984 3158 3091 3014 3089 3165 3068 3094 2832 2982 2682 2128 2588 2733 2704 3034 3062 3195 3061 2813 2979 2922 2849 2902 3079 2533 2577 2832 3168 3326 3028 2810 3023 3283 3172 3192 3332 3312 3081 3246 3129 2885 2840 2847 3118 3560 3251 2816 2594 2668 2486 2557 2753 2738 2882 3071 3573 3747 3556 3520 3641 3423 3507 3640 3885 3941 3886 3915 3946 4090 4241 4304 4168 4067 3867 3736 3695
3190 3710 3544 3367 3048 3340 3160 3005 2994 3077 2949 2952 3208 2960 2592 2697 2830 2851 2772 2199 2291 2811 2903 3267 3393 3418 3222 3164 3452 3402 3204 3265 3377 2956 2540 2560 3039 3218 3274 3104 3002 3323 3439 3495 3518 3375 3327 3320 3158 3112 3064 2954 3134 3645 3438 3324 3243 3011 3004 3160 3382 3512 3626 3607 3720 3857 3861 3634 3615 3709 3616 3770 3802 3936 4180 4203 4269 4341 4356 4510 4400 4409 4324 3590 3709
3154 3641 3496 3247 3298 3267 3068 2898 3011 3090 3078 2936 2905 2773 2296 2208 2802 2898 2804 2480 2197 2740 3216 3075 3137 3671 3604 3455 3522 3834 3836 3761 3740 3357 2630 2584 2734 3005 3185 3326 3222 3294 3469 3524 3679 3598 3430 3457 3222 3150 3052 2960 3121 3406 3560 3480 3462 3447 3676 3789 3614 3798 4214 4310 4177 4059 3990 3878 3744 3678 3732 3636 3869 4019 3964 3937 3901 3912 3994 4017 4006 4079 4245 4044 3641
3313 3691 3631 3067 3242 3215 3053 2986 3090 3166 3161 2933 2657 2596 2218 1757 2018 2650 2678 2509 2167 2238 2981 3171 3150 3484 3863 3766 3710 3845 4181 4057 4066 3960 3120 2714 2886 3238 3051 3048 3236 3331 3451 3335 3254 3111 3118 3150 3296 3338 3229 3037 3046 3104 3273 3532 3498 3386 3648 4124 4246 3981 4004 4134 4139 4087 4125 4028 3904 3904 3920 3849 3899 4046 4094 3937 3951 3884 3939 3915 4042 4145 4788 4792 5072
3474 3848 3686 3164 3472 3416 3447 3114 2935 3272 3287 3348 2787 2440 2185 1647 1884 2245 2765 2664 2285 2218 2238 3023 2920 3078 3635 3858 3826 4023 4282 4308 4274 4384 3916 3007 2692 3237 3390 2905 2835 3286 3292 3533 3179 2318 2207 2560 2514 2844 3272 3525 3518 3325 3175 2935 3461 3645 3532 3652 3964 4137 4270 4270 4073 4010 4261 4247 4143 3797 3812 3973 3862 3601 3634 3858 4028 4237 4096 4082 4394 4773 4896 5456 5106
3478 3678 3805 3616 3732 3858 4022 3444 3238 3260 3347 3268 2861 2573 2371 2026 2019 2368 2897 2802 2230 2112 2110 2204 2907 2942 3295 3874 3988 3820 3977 4241 4337 4486 4308 3725 2778 2802 3376 3326 3085 3046 3197 2987 3112 2933 2043 1648 1842 1987 2836 4015 3805 4065 3626 3436 3314 3688 3954 4064 4214 4355 4452 4380 4141 4056 3966 3911 4038 3937 3715 3874 3961 3820 3507 3677 3904 3975 3821 3803 4376 4625 5021 4825 5346
3684 3891 3902 3835 3943 4098 4262 3960 3455 3520 3359 3384 3424 2927 2621 2454 1984 2279 2857 3047 2698 2372 2285 2067 2532 3044 3133 3624 3819 3743 3594 4060 4110 3596 3854 3919 3283 2438 2788 3397 3346 2960 2940 3099 2710 2662 2594 2030 1294 2066 2447 3742 3854 3688 3780 3820 3878 3716 3422 3896 4543 4708 4733 4652 4545 4295 4031 3852 3792 3823 3618 3471 3377 3354 3207 3216 3616 3929 3958 4418 4749 4920 5148 5141 5486
3607 3880 4057 3965 4173 4460 4534 3986 3881 3992 3882 3750 3669 3428 3303 2810 2700 3158 3269 3334 3305 3248 2542 2106 2193 2672 3094 3323 3694 3688 3610 3514 3624 3429 3476 3464 3559 3162 2630 3061 3471 3445 3007 3252 3181 2534 2113 2209 2163 2027 3585 3594 4472 3613 3750 3694 3686 3561 3389 3134 3558 5414 4800 4355 4342 4125 4005 3912 3841 3891 3777 3748 3660 3707 3634 3616 3665 3787 4233 4739 4992 5186 5171 5124 5007
3679 4009 4031 4209 4495 4597 4570 4460 4262 4274 4242 4213 4202 3907 3310 3395 3539 3396 3154 3441 3763 2983 2584 2544 2759 2490 2851 3264 3429 3467 3446 3180 3296 3368 3314 3360 3402 3624 2824 2538 3039 3496 3571 2960 3161 3027 2387 1801 1779 2065 2315 2729 2861 4591 3608 3590 3534 3361 3158 2849 2459 2064 2003 3190 4345 4285 4162 4232 4164 3950 3773 3621 3662 3961 3813 3745 4334 4408 4804 4922 5131 5192 5064 5045 5034
3634 4130 4249 4397 4643 4738 4650 4502 4519 4415 4443 4526 4545 4318 4004 3619 3272 3177 3247 3630 3666 3681 3524 2864 2891 2748 2610 3275 3246 3374 3298 2961 3065 3281 3245 3209 3157 3211 2754 2618 2299 2898 3304 3442 2972 3061 3088 2614 1998 1626 1808 3228 3836 3329 4826 4278 3105 3307 3073 2886 2644 2398 2211 2058 1888 2545 3664 4212 4354 4444 4173 4050 4199 4210 4086 4424 4850 4758 4865 4836 5189 5288 5156 4982 4799
3746 4004 4358 4498 4637 4725 4789 4840 4654 4675 4815 4770 4744 4495 4043 3938 3566 3464 3530 3770 3974 3974 3470 3382 3294 3571 3063 3209 3474 3382 3496 2912 2983 3088 3152 3092 3012 3096 2742 2131 2510 2482 2732 3052 3220 3196 3355 3296 2993 2718 2442 2844 3545 3798 4093 4615 5201 4234 3734 3318 3127 2919 2632 2452 2293 2202 2038 2409 3112 3606 4109 4245 4218 4427 4766 4740 4862 4865 4799 4784 4874 4729 4682 4674 4626
3919 4165 4392 4550 4686 4888 4992 4836 4908 5052 4993 4830 4955 4598 4281 4258 3955 3508 3444 3719 4106 4275 3986 3707 3693 3768 3306 2985 3229 3318 3314 3005 3021 3037 3016 2965 2882 2655 2868 2236 2057 2450 2712 2961 3392 3668 3857 3936 3722 3325 3312 3282 3054 3610 4277 4455 4532 5014 5109 4396 4038 4073 4192 3633 3106 2720 2519 2398 2577 3112 3576 3921 4138 4286 4501 4646 4958 5136 4716 4751 4617 4502 4503 4374 4103
3880 4216 4409 4490 4661 4937 5006 5056 5030 5088 5041 5030 5002 4747 4578 4557 4403 3862 3521 3421 3908 4256 4365 3959 3966 3972 3789 3444 2839 3150 2897 2875 3116 3141 3065 2861 2774 2560 2894 2772 2742 2644 2728 2923 3285 3868 4073 4207 4500 4364 4120 4187 4173 3668 4030 4504 4662 4727 4948 5143 5040 4905 4836 4673 4523 4326 4101 3922 3744 3527 3561 3847 3640 4228 5139 4288 4277 4364 4301 4023 3817 4106 4137 4244 4225
4034 4356 4317 4449 4703 4998 4989 4993 5016 5020 5055 5010 4941 4746 4817 4814 4461 4293 3887 3538 3671 4051 4308 4047 4130 4158 4112 4047 3561 3197 3151 2878 2755 3080 3128 3041 2808 2648 2898 2929 3103 3314 3372 3294 3509 3684 3950 4432 4582 4582 4692 4853 4683 4257 3912 3869 4307 4366 4723 4811 4511 4109 3866 3874 4086 4036 3989 3801 3620 3514 3577 3626 3438 3332 3396 3558 3736 3749 3746 3770 3780 3866 4158 4152 3276
4052 4490 4418 4534 4882 5038 4984 4989 4975 4952 5037 4983 4900 4857 4820 4780 4544 4318 4089 3653 3247 3645 4085 4161 4094 4182 4056 4136 3861 3797 3400 4683 2704 2685 2954 2931 2837 2944 3196 3166 3176 3328 3529 3519 3800 3958 4061 4186 4620 4622 4696 4816 4602 4354 4159 3883 4432 4166 4136 4015 3912 3524 3498 3324 2754 3549 3659 3662 3568 3544 3469 3493 3488 3544 3615 3723 3780 3842 3759 3853 4148 3818 3606 2908 2893
4110 4546 4528 4644 4911 5054 4975 4902 4964 4866 4961 4944 4724 4788 4815 4879 4696 4388 4063 3814 3408 3306 3553 4004 4252 4203 4085 3990 4057 3807 3619 4425 3031 2738 2610 2679 2684 3290 3461 3427 3367 3441 3563 3676 3904 4008 4240 4201 4428 4638 4697 5153 4717 4475 4286 4237 4428 4362 4338 4306 4066 3815 3455 3313 3530 3560 4148 3902 3805 3782 3697 3840 3852 3875 3853 4001 3993 3900 3838 3924 4108 3289 3393 3197 2961
4275 4609 4644 4652 4834 4922 4815 5003 4996 4831 5048 4890 4758 4941 4782 4730 4610 4499 4363 3946 3529 3219 3063 3391 3824 4122 4061 3917 3881 3866 3733 3593 3121 2939 2837 2680 2560 3185 3686 3560 3517 3502 3650 3692 4070 4288 4070 4271 4687 3761 3809 4001 4270 4322 4251 4142 4398 4523 4463 4489 4178 4028 3697 3699 4211 3934 4070 4067 4291 4434 4651 4727 4687 4688 4803 4889 4319 4141 4024 3970 3918 4099 3229 2730 2343
4405 4820 4693 4522 4617 4850 4789 4901 4906 4683 4860 4877 4728 4563 4514 4577 4492 4439 4282 3859 3766 3606 3045 3005 3160 3728 3812 3814 3646 3582 3591 4153 3552 3180 3157 3013 2775 2668 3498 3700 3714 3803 3921 3955 4047 3989 4219 4350 4344 4246 3861 3618 3553 3543 3623 3782 3782 4444 4430 4540 4267 6942 4200 4342 4293 4076 4310 4479 4466 4614 4610 4682 4475 4360 4263 4514 4377 4179 4366 3970 3870 3965 2107 1781 1309
4445 4671 4646 4450 4545 4604 4599 4910 4855 4607 4808 4832 4700 4599 4570 4391 4391 4461 4218 4142 4049 3897 3690 3391 3243 3344 3585 3749 3728 3614 3582 3504 3845 3472 3265 3151 2993 2738 3115 3447 3726 3937 4058 4237 4156 4138 4071 4191 4546 4227 3793 3763 3563 3330 3222 3166 3268 3345 4282 3740 3534 3476 4118 3933 4190 3664 3344 3746 3982 4168 4225 4311 4266 4352 4354 4345 4100 3862 2515 2217 2336 2430 1898 885 421
4407 4835 4789 4559 4620 4522 4564 4818 4551 4351 4482 4694 4663 4667 4754 4415 4410 4535 4424 4351 4290 4108 4145 3822 3680 3651 3714 3896 4004 4034 4420 4656 4020 3526 3320 3244 3170 2994 2752 2891 3049 4063 3938 4171 4200 4251 4297 4199 4163 3995 3663 3648 3600 3561 3511 3433 3263 3084 3025 3038 3018 2961 2909 3101 3126 3050 3348 3463 3726 4183 4584 4442 4123 4227 4432 4269 3604 2585 2474 2840 2584 2051 1225 705 1023
4535 4869 4784 4537 4545 4507 4398 4506 4557 4346 4580 4824 4832 4742 4687 4528 4422 4513 4601 4401 4300 4264 4309 4249 4014 3746 3722 3792 4007 4066 4593 4450 3904 3504 3356 3289 3220 3124 2975 2802 2604 3153 3675 3848 4025 3917 4780 4359 4713 3609 3524 3515 3566 3535 3471 3417 3342 3232 3120 2986 2809 2606 2438 2515 2878 3145 3317 3358 3727 3963 4054 3866 4020 4393 4408 3802 3141 3104 3096 2770 2359 1661 982 1007 1206
4688 4927 4747 4517 4479 4286 4440 4634 4615 4223 4442 4730 4760 4658 4663 4469 4554 4546 4636 4407 4371 4384 4492 4413 4433 4195 3933 3901 4083 4052 3996 3896 4258 3714 3430 3434 3400 3328 3220 3067 2957 2735 2845 3427 3906 3837 3307 3478 3437 3392 3325 3270 3232 3205 3163 3138 3061 2992 2865 2685 2472 2332 2245 2400 2999 3282 3488 3644 3675 3651 3698 4012 4331 4165 3317 3423 3276 3046 2647 2437 2072 1430 1015 1060 1119
4739 5019 4687 4399 4351 4404 4393 4517 4466 4251 4426 4627 4753 4800 4670 4388 4510 4626 4528 4353 4459 4535 4471 4057 3940 3930 3901 4015 3848 3888 4103 4055 4431 4405 3464 3528 3492 3465 3402 3363 3216 3014 2814 2730 3112 3249 3449 3142 2943 2889 2958 3042 3188 3146 3123 3113 2988 2864 2681 2528 2391 2232 2530 3056 3342 3481 3832 3847 3715 3541 3892 3801 4224 3060 2808 2860 3020 2861 2521 2219 2068 1556 812 573 658
4876 4909 4721 4441 4396 4128 4315 4302 4537 4298 4421 4522 4641 4645 4597 4558 4553 4687 4460 4180 4334 4301 4119 3845 3805 3847 4128 4035 4080 4040 4163 4360 4338 4205 3697 3647 3612 3576 3626 3687 3555 3298 2989 2954 2986 2989 2997 2977 3342 3049 2877 2883 3470 3532 3423 3198 2926 2732 2503 2307 2165 2606 3100 3538 3790 4026 4006 4029 3859 3910 3917 3765 2733 2335 2841 3181 2977 2643 2480 2314 2131 1286 472 366 847
4877 5043 4758 4417 4219 4159 4414 4253 4462 4149 4255 4249 4368 4412 4459 4573 4432 4535 4392 4269 4346 4195 3874 3775 3692 3923 4143 4166 4313 4404 4462 4547 4426 4276 4309 3844 3804 3779 3761 3780 3759 3562 3259 3237 3253 3253 3240 3257 3119 3020 2895 2844 2825 2792 2836 3062 2856 2427 2386 2264 2601 2811 3390 3352 3531 3662 3786 3743 3882 3966 3242 2892 2775 2969 3036 2995 2672 2510 2454 2434 1871 745 392 507 718
5011 5021 4765 4550 4425 4343 4472 4171 4385 4324 4328 4225 4195 6743 5910 4570 4576 4610 4456 4524 4423 4336 4213 4287 4176 4176 4287 4457 3998 4579 4526 4419 4748 4166 4883 4060 4030 3965 3905 3893 3904 3945 3718 3615 3599 3570 3521 3472 3399 3272 3121 3008 2892 2825 2733 3064 3187 3066 2859 3295 3132 3326 2997 3064 3022 2896 3326 3499 3275 3442 3569 3502 3248 3116 2812 2582 2408 2295 2354 2012 1168 976 1031 654 835
4990 4990 4878 4718 4572 4299 4347 4141 4156 4276 4233 4230 3781 4157 4216 4087 4193 7336 5428 4248 4127 4130 4926 6403 6496 5620 4498 4898 4759 4691 4796 5564 4726 4276 4287 4049 4047 4076 4119 4166 4051 3856 3742 3740 3767 3735 3670 3625 3605 3525 3428 3283 3141 3010 2899 3095 3383 3269 3060 3061 3048 3154 2716 2510 2529 2638 2777 2988 3379 3705 3625 3383 3288 2967 2683 2494 2323 2242 1963 1163 528 894 691 469 466
4464 4749 4518 4437 4314 4244 4270 4219 4199 4566 4714 4472 4457 4031 4192 4120 4076 4299 4537 4378 4237 4086 4258 4387 4524 4486 4977 5199 4509 4642 4716 4748 4606 4453 4227 4163 4124 4107 4062 4069 4043 3919 3882 3853 3838 3816 3760 3714 3700 3668 3616 3544 3475 3393 3235 3129 3052 3089 2993 2870 2533 2753 2458 2341 2411 2307 2346 2785 3505 3466 3303 3272 3113 2744 2518 2222 2109 1902 1328 652 467 546 592 564 554
4485 4516 4506 4416 4874 4794 4406 4567 4448 4672 4908 5079 5406 4603 4403 4118 4137 4218 4310 4576 4437 4258 4207 4109 4193 4281 4032 4971 4996 4502 4212 4317 4352 4340 4280 4195 4225 4192 4148 4096 3988 3872 3876 3860 3861 3836 3770 3748 3765 3725 3668 3625 3555 3481 3407 3307 3228 3177 3115 3115 3088 2974 2807 2545 2400 2260 2635 3358 3370 3338 3226 3188 2852 2461 2184 2176 1899 1269 683 665 842 849 746 605 461
4522 4378 4617 4438 4864 4909 4623 5120 5076 4649 4939 5075 5801 5102 4880 4654 4194 4205 4202 4290 4461 4417 4307 4249 4220 4215 4128 4319 4959 4776 4423 4128 4122 4164 4179 4254 4292 4295 4170 4024 3903 3842 3844 3893 3889 3894 3850 3810 3801 3769 3708 3650 3592 3534 3476 3463 3427 3433 3365 3249 3188 3122 3110 2975 2747 3061 3201 3151 2941 3000 2684 2569 2445 2314 2145 1798 1400 964 981 1158 1002 916 682 507 300
4497 4296 4562 4524 4929 4801 4889 5147 5090 5258 5321 5692 5842 5642 5158 4726 4743 4238 4143 4155 4311 4430 4388 4347 4224 4227 4172 4129 4125 4063 4096 4172 4207 4143 4041 4054 4050 4034 3985 3955 3906 3902 3895 3905 3887 3903 3899 3887 3835 3778 3701 3856 3499 3435 3601 3384 3367 3338 3278 3207 3150 3062 3062 3115 3109 3075 2957 2879 2677 2411 2456 2405 2276 1981 1839 1784 1600 1376 1082 945 902 774 762 806 612
3680 3633 4038 4621 5178 4881 4594 5033 5034 5153 5326 5397 5734 5349 5208 5559 4802 4590 4052 4059 4140 4293 4421 4480 4469 4426 4272 4149 4070 4054 4056 4029 3968 3913 3818 3899 3948 3976 4004 4014 4020 4008 3954 3887 3876 3940 3947 3937 4400 3827 3681 3599 3519 3393 3342 3335 3314 3241 3193 3152 3176 3101 3042 3058 2869 2666 2785 2720 2514 2444 2410 2204 1997 1900 1825 1873 1340 1001 988 966 1046 1035 940 873 574
3733 3735 3519 3644 3797 4522 5028 5315 5197 5174 5532 5590 5486 4985 4937 4956 4319 4661 4230 3955 4010 4120 4084 4186 4361 4449 4420 4359 4237 4112 4017 3937 3891 3881 3922 3941 3976 4034 4088 4094 4102 4076 4020 4043 4018 3985 3929 3952 3942 3892 3757 3645 3553 3542 3487 3407 3290 3209 3292 3390 3114 3046 2860 2832 2801 2710 2195 2036 1960 2194 2168 1890 1681 1777 1723 1554 1322 1315 1316 1317 1204 1009 712 360 3
3073 3236 3184 2998 2893 2728 3251 4065 5027 4946 4690 4796 4636 4456 3591 4144 4185 4508 4435 4329 3874 3712 3758 3852 3941 4036 4053 4046 4010 3914 3848 3832 3844 3910 3929 3963 4052 4176 4173 4208 4208 4173 4148 4165 4152 4170 4116 4052 3984 3930 3830 3756 3517 3174 3316 3372 3365 3434 3358 3036 2969 2861 2614 2357 2445 2490 2370 2234 2099 1879 1722 1744 1766 1456 1333 1392 1287 1381 1364 1184 952 605 156 2 0
2887 3059 3090 2965 2922 3292 3678 4011 4267 4111 4342 3994 4577 4394 4134 4073 3952 4059 3810 3672 3614 3415 3153 3050 3249 3405 3529 3540 3532 3601 3672 3863 3952 4020 4088 4158 4200 4218 4250 4261 4359 4405 4456 4391 4330 4305 4238 4129 4103 4068 3969 3848 3784 3494 3165 3302 3308 3036 2933 2781 2764 2567 2259 2060 1837 1763 1876 1929 1905 1952 1883 1438 1441 1601 1453 1275 1283 1109 938 750 508 268 6 126 12
2894 2929 2859 2929 3173 3421 3384 3403 3773 4020 4131 4313 4350 4330 3676 3958 3922 3626 3706 3671 3408 3171 3072 2956 2873 3147 3373 3486 3532 3557 3671 3846 3962 4113 4205 4304 4257 4312 4416 4448 4479 4447 4470 4462 4431 4359 4243 4131 4030 3960 3862 3769 3787 3663 3080 2957 2927 2869 2997 2746 2369 2329 2280 1998 1977 2068 2022 1945 1792 1585 1720 1670 1354 1149 1150 1012 922 946 838 757 558 246 3 4 4
2331 2517 2593 2523 2839 2998 2950 3078 3198 3315 3496 3565 3669 3661 3582 3678 3560 3266 3226 3274 3193 3090 3093 3107 3301 3464 3617 3616 3637 3548 3513 3604 3620 3734 3896 3939 4063 4246 4365 4492 4365 4281 4032 3959 3912 4092 4126 3971 3583 3273 3363 3568 3530 3396 3278 3290 3061 3032 2516 2544 2266 2232 2098 2079 2028 2058 1848 1713 1516 1256 1516 1306 1135 1138 1018 896 710 432 629 564 295 5 5 6 5
1943 2243 2368 2408 2403 2494 2745 2978 3167 3298 3428 3390 3445 3429 3427 3374 3297 3245 3279 3335 3319 3320 3329 3389 3479 3598 3604 3670 3651 3580 3430 3339 3299 3288 3333 3518 3563 3771 3723 3529 3235 3171 3252 3258 3290 3378 3616 3654 3400 3092 2852 2844 2818 2848 2844 2898 2793 2767 2453 2200 2122 2011 1815 1817 1832 1833 1710 1555 1406 1252 1163 1098 1086 983 980 606 115 6 47 31 5 4 4 5 7
1654 1786 2002 2325 2389 2610 2623 2787 3094 3355 3500 3425 3325 3176 3060 2992 3004 3114 3224 3344 3461 3548 3561 3515 3500 3535 3543 3572 3580 3506 3468 3272 3340 3142 2966 2972 2999 3017 2991 2937 2847 2815 2828 2937 3056 3046 2917 2762 2672 2637 2590 2521 2481 2480 2411 2352 2258 2168 2085 1856 1776 1590 1535 1654 1662 1488 1242 1122 959 1024 1056 987 890 691 469 2 22 16 24 27 10 13 7 30 3
1401 1634 1811 2091 2052 2425 2662 2945 3166 3335 3475 3596 3701 3688 3587 3488 3623 3646 3662 3714 3763 3711 3664 3606 3638 3582 3550 3463 3394 3271 3164 3052 2965 2953 3013 2972 2795 2595 2550 2542 2404 2379 2295 2293 2296 2305 2313 2296 2274 2408 2354 2303 2290 2306 2243 2095 1987 1988 2016 1932 1642 1579 1417 1276 1130 1040 1089 1073 929 734 550 350 348 285 8 13 30 20 11 15 42 40 40 72 55
430 898 1138 1360 1392 1580 1906 2357 2744 3008 3106 3344 3509 3790 3866 3812 3753 3796 3759 3745 3641 3543 3484 3515 3594 3561 3348 3114 2979 2980 3080 3047 3097 3083 2886 2683 2571 2402 2303 2288 2308 2405 2385 2345 2234 2163 2062 2045 2073 2092 2124 2147 2057 1929 1836 1773 1763 1703 1461 1335 1232 1187 1152 1123 1180 1124 1046 985 884 696 466 347 1 4 5 6 9 11 16 22 26 35 31 53 36
0 1 3 4 1 212 849 1321 1811 2228 2615 2798 2997 3314 3493 3489 3513 3492 3403 3256 3099 3059 3092 3118 3114 3137 3190 3200 3190 3121 2979 2907 2802 2768 2743 2602 2521 2530 2524 2464 2393 2299 2170 2025 1891 1827 1835 1806 1844 1964 2061 2097 2067 1942 1847 1655 1341 1205 1132 1138 1204 1240 1179 1043 943 848 746 568 423 373 271 0 1 4 4 2 7 4 2 13 19 14 22 28 28
0 0 0 0 1 59 22 256 888 1287 1692 2059 2510 2916 3108 3170 3127 3153 3184 3140 3084 3040 2982 2997 2982 3051 3114 3114 3082 2823 2745 2754 2930 2834 2636 2671 2746 2653 2534 2420 2425 2376 2343 2147 2036 1856 1730 1767 1792 1872 1937 1886 1688 1497 1257 1155 1178 1187 1148 1097 1002 880 732 574 438 381 313 146 0 0 0 0 0 1 2 4 5 4 9 10 9 6 11 14 12
0 0 0 0 0 0 2 1 77 361 509 604 780 1057 1488 2065 2538 2694 2679 2748 2776 2888 3048 3052 2906 2879 2916 3069 2932 2787 2684 2569 2396 2290 2299 2337 2321 2209 2171 2097 2111 2052 1864 1662 1615 1631 1660 1664 1658 1636 1560 1426 1404 1356 1258 1079 907 1129 975 803 660 438 272 0 0 0 0 0 0 0 0 0 0 2 5 7 2 2 4 5 6 5 1 1 7
2 0 0 0 0 0 0 5 44 218 374 461 579 583 672 829 1008 1193 1387 1620 2056 2337 2478 2546 2577 2524 2580 2595 2582 2535 2464 2344 2248 2272 2265 2203 2097 2042 2033 2002 1910 1786 1636 1506 1496 1671 1700 1569 1334 1189 1203 1200 1174 1155 1074 1018 861 742 284 0 0 0 0 0 0 0 0 0 0 0 0 0 0 0 0 0 0 0 0 0 0 1 0 3 3
0 0 0 0 0 0 1 1 1 30 141 245 438 494 486 586 769 904 1037 1198 1324 1367 1420 1486 1528 1748 1852 1902 1931 1894 1862 1916 1939 2015 2034 1993 1923 1932 1935 1820 1617 1306 1334 1433 1452 1468 1403 1248 1113 1014 1018 963 876 728 473 109 0 0 0 0 0 0 0 0 0 0 0 0 0 0 0 0 0 0 0 0 0 0 0 0 0 0 0 0 0
2 2 2 2 1 1 2 3 2 2 2 29 111 188 434 443 388 665 836 987 1015 966 1072 1177 1266 1259 1317 1375 1423 1486 1500 1498 1489 1456 1482 1509 1428 1314 1352 1298 1182 1120 1194 1291 1225 1058 938 861 796 721 619 414 0 0 0 0 0 0 0 0 0 0 0 0 0 0 0 0 0 0 0 0 0 0 0 0 0 0 0 0 0 0 0 0 0
3 2 3 3 2 2 1 1 2 2 2 4 2 7 142 351 382 354 369 638 809 804 697 764 854 878 890 962 1005 1097 1170 1225 1223 1152 1152 1086 1122 1076 1080 1146 1098 1056 1047 1058 897 636 459 374 355 310 39 0 0 0 0 0 0 0 0 0 0 0 0 0 0 0 0 0 0 0 0 0 0 0 0 0 0 0 0 0 0 0 0 0 0
Wind_Speed
21 22 23 22 21 18 15 15 15 16 14 13 12 12 10 9 7 6 8 8 8 7 7 8 9 9 9 8 7 3 2 3 4 5 6 6 7 7 7 9 10 9 9 9 10 11 11 10 8 5 3 3 3 3 3 3 3 3 3 4 5 6 6 6 8 9 8 8 9 9 10 10 10 9 9 10 12 14 18 18 18 17 17 16 17
21 23 24 24 22 20 18 18 17 17 15 14 13 13 12 10 10 8 8 10 10 8 8 9 10 9 8 6 5 2 1 2 4 5 6 7 7 6 7 8 8 9 8 9 9 9 10 11 10 8 6 5 5 5 4 4 4 4 3 4 5 6 5 6 7 8 10 8 8 8 8 8 9 8 10 11 13 13 14 13 13 15 16 16 20
22 24 25 24 23 23 21 20 19 18 16 15 13 13 13 12 12 10 10 12 12 11 10 10 11 10 10 8 6 4 4 4 3 5 6 7 7 7 7 8 8 8 9 9 8 9 9 10 10 10 8 7 7 6 6 5 4 4 4 3 4 5 5 6 6 8 10 8 7 7 6 5 5 5 7 10 11 12 13 13 13 13 13 16 19
23 24 25 24 24 25 23 22 20 19 17 16 14 14 15 14 13 12 12 14 14 13 12 11 12 12 10 9 7 6 6 5 5 5 7 8 8 7 6 7 8 8 8 8 8 8 9 9 9 10 9 8 6 5 5 4 3 3 5 5 6 6 6 6 6 7 7 8 5 5 5 5 5 7 9 11 12 10 10 11 13 13 14 16 19
22 24 24 25 25 25 23 22 20 19 18 18 16 15 14 16 16 14 14 14 15 15 14 14 14 13 11 9 8 7 6 6 6 7 8 9 9 8 7 7 8 8 8 8 8 7 8 8 9 9 8 7 7 5 4 4 3 3 3 3 4 4 4 5 5 5 5 6 5 4 4 5 5 7 10 11 10 9 10 12 12 12 15 17 21
21 23 24 26 26 25 24 22 20 19 19 18 18 17 16 16 18 17 15 14 15 15 14 15 15 14 13 11 9 8 7 7 7 8 10 10 9 8 7 8 8 9 9 9 9 8 8 8 8 8 8 8 7 6 4 3 2 2 2 2 3 3 3 3 3 3 4 5 5 5 4 5 5 6 8 10 10 9 10 10 10 13 16 18 19
22 24 25 25 26 26 25 22 21 20 20 19 20 20 17 16 17 18 17 16 15 15 15 14 16 16 15 13 11 9 8 8 9 10 9 10 11 9 8 8 8 9 10 10 10 10 10 9 8 8 8 8 7 6 5 4 2 1 1 0 1 2 2 2 2 2 2 4 5 5 4 5 6 7 8 9 10 11 10 11 12 13 16 16 19
22 24 25 25 26 26 26 25 23 22 22 21 21 21 19 18 18 20 20 17 15 15 15 16 17 17 16 14 12 11 9 8 9 11 11 10 11 11 10 9 9 10 10 11 10 10 10 10 9 9 9 8 8 6 4 4 4 2 2 2 2 1 2 2 2 2 1 2 3 3 3 3 5 8 9 10 11 12 14 13 12 12 12 14 16
23 24 25 25 25 26 27 27 26 25 24 23 21 21 21 20 20 21 22 19 18 16 16 16 17 17 17 15 13 11 10 9 10 12 12 11 10 12 12 11 11 10 10 10 10 10 9 9 8 8 8 10 10 6 3 4 5 5 5 4 4 4 3 3 4 3 2 1 2 2 4 5 7 8 8 9 11 10 12 13 13 12 12 12 16
22 24 25 25 25 26 28 29 29 28 26 25 23 22 21 21 20 21 22 21 20 19 19 18 17 17 17 16 14 12 12 12 13 15 14 12 12 11 12 13 12 11 10 9 9 10 10 9 7 8 7 11 13 12 8 4 5 6 7 7 5 5 6 5 5 4 3 2 1 1 2 4 6 8 8 8 9 9 10 11 10 10 11 13 17
21 22 24 25 26 27 28 28 29 28 28 28 26 24 22 22 22 23 23 23 22 22 20 18 17 18 17 16 14 13 13 14 19 18 16 14 12 12 12 13 13 12 11 11 9 9 10 11 8 6 8 10 11 13 12 10 8 6 4 6 9 10 8 7 6 5 4 3 2 1 1 2 5 7 9 9 9 8 8 8 8 9 10 11 12
21 21 23 24 25 26 27 28 28 29 29 29 29 26 23 23 23 23 22 23 23 22 21 20 19 18 18 16 14 14 14 17 24 22 19 16 12 12 12 12 13 12 11 11 11 10 10 10 10 8 7 7 6 10 10 11 9 8 7 5 3 4 6 9 10 8 6 5 4 3 3 1 3 7 8 9 10 10 9 9 9 9 8 11 13
23 21 22 23 24 25 27 27 28 29 29 29 30 28 25 23 22 21 21 23 24 23 23 22 21 19 19 18 15 15 14 22 26 25 22 19 16 11 12 12 12 12 12 11 11 11 11 11 10 9 7 11 9 6 9 10 9 10 9 7 5 4 3 3 4 6 8 7 6 5 4 3 3 6 9 10 11 9 10 12 11 10 9 10 12
25 22 21 22 23 25 27 27 26 28 29 29 29 28 26 24 22 23 24 24 24 23 22 23 23 22 21 20 19 18 16 26 28 27 23 21 19 15 11 11 11 11 11 11 11 11 12 12 12 11 10 9 9 7 6 6 9 9 9 9 8 6 6 4 3 2 4 5 4 4 5 5 3 6 7 9 9 10 10 11 11 10 10 11 11
28 25 23 22 23 25 27 26 25 26 28 28 28 27 26 25 24 24 24 24 23 23 23 24 24 23 22 21 21 20 19 31 30 29 25 22 21 17 12 10 10 10 10 10 11 12 13 13 13 12 12 11 10 9 7 6 5 7 11 11 10 8 9 11 12 12 12 10 6 3 4 4 4 5 8 11 12 11 11 11 13 14 14 13 14
29 28 25 23 23 26 28 27 25 25 26 27 27 26 26 25 25 25 24 23 24 24 23 23 24 24 23 22 21 21 22 33 31 31 28 23 23 18 14 10 8 9 10 10 11 12 12 13 14 13 12 12 12 13 10 7 5 5 7 9 11 11 11 12 15 16 14 15 12 9 8 8 8 10 11 10 10 10 11 13 16 16 18 19 20
29 30 28 26 25 26 28 27 25 24 25 26 26 26 26 25 25 26 24 24 23 23 23 22 24 24 24 23 21 23 22 30 31 30 29 27 25 18 15 13 11 10 9 10 11 12 13 14 14 13 13 12 13 17 14 12 6 4 6 8 10 11 12 15 19 20 19 17 18 14 11 10 9 13 13 13 16 17 15 15 15 18 19 17 18
29 31 30 29 28 27 28 28 26 25 24 25 25 26 26 25 25 26 24 23 23 22 23 23 23 23 23 22 22 22 21 30 31 31 30 30 25 20 17 15 12 12 11 10 11 12 12 15 15 14 12 12 15 18 18 16 8 5 6 7 9 10 12 14 18 21 21 21 19 18 16 12 10 9 11 13 16 24 21 19 17 20 21 19 21
28 29 31 31 29 28 29 29 27 25 24 24 25 25 25 25 25 26 24 24 23 23 23 23 22 22 21 20 24 21 20 27 30 30 30 30 25 19 19 17 14 14 13 13 12 12 13 15 17 16 14 13 17 20 21 18 10 7 7 9 10 11 13 16 17 19 22 20 17 17 16 16 16 16 16 17 18 23 25 24 22 22 22 23 25
27 30 32 32 30 29 29 29 27 25 24 25 25 25 25 25 25 25 25 24 23 22 22 21 19 20 21 20 22 20 18 23 27 29 29 28 25 21 19 18 16 15 15 14 14 14 14 14 19 21 18 15 18 24 21 18 13 9 9 10 12 13 15 16 19 18 16 16 17 18 19 18 18 18 18 19 21 25 26 28 28 28 26 26 27
31 32 32 32 30 29 29 29 27 25 25 26 26 25 25 24 24 25 24 25 24 22 20 19 18 19 19 20 19 18 18 18 26 27 27 27 24 21 18 17 17 17 16 16 14 14 15 16 15 23 24 21 20 23 23 19 14 11 10 11 13 21 25 19 19 19 17 17 17 18 18 19 18 17 17 18 19 23 28 32 30 31 29 29 27
34 33 32 32 31 29 29 30 28 26 25 26 26 25 24 23 24 24 24 24 23 22 21 20 19 19 18 19 18 16 19 17 24 23 26 25 24 20 17 16 17 17 16 15 14 13 13 16 16 21 27 26 25 23 22 20 16 14 12 11 12 19 19 20 18 16 15 15 16 16 18 19 21 19 18 19 21 24 24 31 34 32 33 32 30
36 34 33 33 31 30 30 31 29 26 25 26 26 26 25 23 23 24 23 24 23 22 22 20 20 19 19 19 18 17 18 19 24 24 21 23 23 20 16 15 18 16 13 12 13 12 13 14 15 24 28 28 26 25 23 20 17 14 12 12 13 15 19 16 15 15 16 16 17 18 20 21 20 20 20 21 22 27 31 32 31 32 33 34 34
39 36 34 33 32 30 30 31 29 26 26 26 26 25 24 23 23 23 24 23 23 22 22 21 19 17 17 17 16 16 17 17 22 26 22 21 21 20 17 12 12 13 12 11 11 12 11 12 15 22 27 27 27 26 24 22 20 17 16 16 14 17 18 16 17 18 17 18 19 20 22 22 21 21 21 23 27 33 32 31 31 33 34 34 35
41 37 35 34 31 30 31 31 29 26 26 26 25 24 23 23 23 23 24 23 22 22 21 20 19 17 16 15 15 15 14 13 15 23 25 21 20 18 17 16 12 10 11 11 10 13 23 25 25 22 21 23 25 25 24 24 21 19 21 20 20 19 19 19 18 20 20 20 21 21 23 23 22 21 26 31 31 30 31 33 34 34 33 34 36
42 39 36 34 31 31 31 31 29 27 27 25 24 23 22 22 23 23 23 23 22 20 19 18 17 16 14 14 15 15 15 16 16 21 21 20 18 18 18 17 16 14 12 10 9 14 20 21 26 27 26 23 23 21 20 23 24 22 23 25 22 20 21 21 21 21 22 23 24 24 23 24 24 28 32 32 31 30 33 35 35 34 34 36 37
43 40 37 35 32 30 31 30 29 28 26 25 23 21 21 22 22 23 22 22 20 19 18 17 17 16 16 15 17 17 17 17 17 19 24 22 21 19 17 16 15 15 14 11 10 9 15 19 22 23 23 23 21 25 27 27 27 24 22 22 21 21 23 22 23 24 25 24 25 25 25 25 31 35 31 32 32 34 35 36 35 35 36 37 38
42 39 37 35 32 31 30 32 30 27 25 23 22 21 20 20 21 21 21 21 19 18 17 17 18 18 18 19 19 21 19 18 18 17 24 24 22 23 22 21 21 20 17 17 16 15 15 25 27 21 23 21 21 21 23 24 23 25 24 25 25 25 27 30 31 28 27 27 26 26 29 34 33 31 32 33 35 37 37 36 37 37 37 38 38
41 38 37 34 32 32 31 31 28 26 26 23 25 27 22 20 21 23 22 21 21 20 19 23 21 21 20 22 22 20 20 18 18 20 24 27 24 24 23 22 23 22 21 21 20 19 19 18 18 18 18 20 20 21 21 22 24 25 26 27 28 29 32 30 30 30 29 30 29 32 33 33 33 33 34 35 36 37 38 39 40 39 39 39 39
37 36 35 34 33 33 31 30 27 26 27 27 34 32 38 42 38 28 28 39 42 43 35 26 27 24 23 25 27 22 20 25 38 41 37 33 28 29 30 30 27 24 25 26 23 23 23 22 22 23 24 24 25 26 28 28 29 29 29 31 32 32 33 32 32 31 33 33 33 35 35 35 35 36 36 36 39 40 43 44 42 41 41 40 41
35 34 34 34 35 34 32 30 29 27 29 30 32 32 32 38 45 47 43 40 42 44 44 44 45 44 37 31 42 46 44 42 43 43 43 41 41 38 36 34 33 28 37 38 31 27 26 26 26 27 28 28 28 29 30 31 33 35 36 38 36 35 36 35 35 34 36 36 37 37 37 37 37 39 39 40 41 43 44 44 42 42 42 42 42
33 34 36 38 40 37 34 33 32 31 32 31 33 31 32 33 37 45 47 45 46 47 47 47 47 47 48 45 40 38 40 43 44 44 43 43 43 42 39 36 36 40 41 44 36 30 27 28 28 28 29 29 30 31 33 35 40 41 39 39 40 37 37 34 36 37 39 39 39 39 39 39 39 40 41 43 44 43 42 42 41 42 43 43 43
35 36 39 41 41 38 37 38 37 36 33 31 32 32 32 33 35 37 43 47 48 50 51 51 50 48 48 50 48 41 39 39 45 45 44 43 44 44 44 42 41 41 44 38 32 33 30 28 27 28 30 31 33 34 36 38 41 41 39 39 39 36 36 36 40 39 39 38 39 40 41 41 41 43 44 44 44 43 44 43 42 42 43 42 43
37 40 42 43 41 39 40 41 39 39 36 34 35 36 34 34 34 38 38 38 41 47 53 55 53 50 51 50 49 49 46 44 46 47 47 47 48 49 50 45 45 42 41 37 35 32 32 29 28 30 33 35 39 41 41 41 40 39 37 37 33 32 35 39 37 36 35 39 39 40 42 43 45 44 42 42 43 44 45 44 43 42 42 42 44
55 56 52 44 43 42 41 42 40 39 39 38 38 39 42 41 38 40 38 39 39 38 38 45 51 55 48 47 48 48 48 47 48 48 50 49 50 52 55 51 46 40 38 36 34 31 30 32 35 38 40 42 42 42 41 40 39 38 38 36 33 34 35 34 32 34 34 37 37 38 39 41 43 42 40 41 44 45 44 42 42 42 42 44 45
54 53 52 53 51 49 46 46 44 41 41 40 41 41 41 41 36 39 38 39 37 39 43 46 49 52 55 57 55 53 54 52 51 50 50 51 52 55 51 47 44 40 38 36 36 39 40 41 42 42 43 42 41 39 37 36 36 36 36 34 34 34 33 31 30 31 30 29 31 34 36 38 38 37 37 38 41 42 42 42 42 42 44 45 nan
56 50 43 45 47 46 47 49 49 47 45 43 44 42 40 40 38 39 38 36 39 40 42 43 44 46 49 52 55 58 58 58 58 58 55 53 50 46 44 43 41 41 39 39 39 41 42 42 43 44 42 41 38 35 33 34 35 36 34 33 34 35 36 33 29 28 29 28 29 34 35 35 35 35 34 34 36 39 41 41 42 44 46 nan nan
60 53 49 50 50 43 42 46 49 52 50 47 46 46 43 41 40 43 43 44 44 44 43 41 39 39 40 42 43 47 54 58 63 61 55 50 44 43 45 46 45 44 43 42 42 43 45 45 43 42 39 36 36 35 35 35 35 36 35 35 36 36 35 35 32 31 31 30 31 35 36 35 34 33 34 34 36 38 41 42 43 44 nan 51 nan
59 60 57 56 56 51 45 43 46 46 46 44 44 45 47 45 44 45 45 45 44 44 42 40 37 37 38 39 42 46 51 51 50 50 50 49 48 48 47 46 47 47 46 46 45 45 46 45 43 41 38 36 36 37 37 37 36 36 36 36 36 36 34 33 33 32 31 31 33 35 36 36 36 36 36 37 39 40 41 43 45 46 nan nan nan
59 56 54 56 52 49 44 44 46 49 50 47 46 47 47 46 47 45 42 41 41 40 38 36 35 35 35 36 38 37 40 44 45 46 47 48 47 46 45 46 46 47 46 46 45 44 44 43 41 40 39 38 37 38 38 38 38 38 37 38 38 39 37 34 35 34 34 35 37 37 37 36 37 39 40 42 42 43 44 44 45 nan nan nan nan
60 57 56 58 56 49 47 48 50 51 50 49 49 49 47 45 44 43 42 42 40 39 37 36 36 35 34 33 32 30 34 40 42 43 44 44 44 44 44 44 44 45 45 44 43 42 42 42 41 40 40 39 39 38 38 39 39 39 39 40 39 38 39 38 38 37 39 40 40 39 38 38 39 41 42 44 45 nan nan nan nan nan nan nan nan
61 59 59 59 59 54 50 51 52 54 52 52 51 48 47 45 43 42 42 41 40 39 39 39 37 36 38 43 41 42 42 42 40 39 40 41 41 41 41 41 41 42 42 42 42 42 42 41 41 40 40 40 39 39 38 38 39 40 41 38 37 37 38 42 42 42 42 41 41 40 39 41 42 42 43 nan nan nan nan nan nan nan nan nan nan
63 62 61 60 60 55 51 51 52 54 54 54 52 50 48 46 44 43 42 42 41 41 41 42 40 40 41 44 47 48 40 38 38 38 39 39 40 40 40 40 42 42 42 42 42 41 42 44 44 43 42 41 41 41 40 39 37 37 38 40 40 36 40 42 42 44 41 41 42 45 44 42 44 46 nan nan nan nan nan nan nan nan nan nan nan
66 66 65 65 63 59 56 55 56 56 56 58 57 53 50 48 47 46 46 45 45 44 44 44 43 43 43 44 45 44 42 41 40 40 40 40 40 40 40 41 42 43 44 44 45 45 46 46 46 46 46 45 45 45 44 43 43 43 42 42 44 45 46 45 45 45 42 42 44 43 44 45 nan nan nan nan nan nan nan nan nan nan nan nan nan
nan nan nan nan nan 64 62 60 59 58 58 59 58 56 54 52 51 50 48 48 48 48 48 47 45 44 44 45 45 46 46 45 43 43 43 43 43 43 44 44 45 46 46 47 47 48 48 49 49 49 50 50 49 49 48 48 47 47 47 47 48 48 47 45 45 44 44 44 45 46 47 nan nan nan nan nan nan nan nan nan nan nan nan nan nan
nan nan nan nan nan nan nan 68 66 65 63 62 63 61 58 55 54 54 52 49 49 50 50 50 49 47 46 46 46 46 46 46 45 45 45 45 46 46 47 47 48 49 50 50 50 51 52 52 52 52 52 52 51 51 50 50 50 51 51 50 49 48 47 45 45 45 47 48 nan nan nan nan nan nan nan nan nan nan nan nan nan nan nan nan nan
nan nan nan nan nan nan nan nan nan 66 64 63 64 63 60 58 57 57 56 54 54 53 53 54 53 52 50 48 47 48 47 47 47 47 47 47 47 48 49 51 52 52 52 52 53 53 54 55 54 54 53 52 52 52 52 51 51 52 52 52 51 49 49 nan nan nan nan nan nan nan nan nan nan nan nan nan nan nan nan nan nan nan nan nan nan
nan nan nan nan nan nan nan nan nan 66 64 64 65 64 62 60 60 60 59 57 55 55 56 57 57 56 56 54 52 51 50 49 49 49 48 48 48 49 50 51 53 53 54 55 55 55 55 55 55 55 55 55 55 54 54 53 53 53 52 nan nan nan nan nan nan nan nan nan nan nan nan nan nan nan nan nan nan nan nan nan nan nan nan nan nan
nan nan nan nan nan nan nan nan nan nan 68 66 66 66 65 65 65 64 62 61 59 57 57 58 59 59 60 59 57 56 54 53 53 52 52 51 51 50 50 51 53 54 55 56 56 56 56 56 57 57 56 56 56 55 55 54 nan nan nan nan nan nan nan nan nan nan nan nan nan nan nan nan nan nan nan nan nan nan nan nan nan nan nan nan nan
nan nan nan nan nan nan nan nan nan nan nan nan 69 69 68 69 68 67 66 65 64 62 61 61 60 61 61 62 62 60 59 57 56 55 55 55 54 54 53 53 53 53 54 56 57 57 57 56 56 56 55 55 nan nan nan nan nan nan nan nan nan nan nan nan nan nan nan nan nan nan nan nan nan nan nan nan nan nan nan nan nan nan nan nan nan
nan nan nan nan nan nan nan nan nan nan nan nan nan nan 73 72 71 70 69 69 69 67 65 64 63 63 63 63 64 64 63 62 60 59 59 59 59 59 58 57 56 55 56 57 58 58 58 57 57 56 nan nan nan nan nan nan nan nan nan nan nan nan nan nan nan nan nan nan nan nan nan nan nan nan nan nan nan nan nan nan nan nan nan nan nan
Wind_Direction
261 255 254 253 256 258 255 247 253 250 251 249 241 242 242 236 238 220 218 199 205 199 177 163 158 146 137 137 122 119 86 38 16 10 8 13 25 23 21 7 14 22 24 35 36 29 29 36 39 38 40 50 48 52 45 34 19 43 88 97 91 85 84 93 102 108 109 108 113 112 113 109 95 77 75 66 55 45 40 39 36 35 31 23 20
261 259 258 259 264 262 258 249 248 248 256 253 246 245 243 239 236 224 219 210 208 204 193 180 168 162 153 155 160 161 262 309 343 338 344 352 4 358 360 5 2 9 14 15 24 29 21 26 33 34 27 34 52 57 60 66 45 49 58 79 101 101 94 106 108 115 118 123 115 115 111 101 90 66 62 61 56 49 50 45 36 27 19 16 16
266 259 258 260 265 263 259 253 249 254 259 254 256 251 247 246 240 234 218 219 214 204 207 190 186 180 175 186 206 217 256 297 314 325 325 338 352 1 351 351 356 360 2 8 12 13 21 22 28 29 26 28 32 50 66 75 97 106 95 93 88 101 106 105 118 114 116 119 122 114 102 100 95 91 79 67 53 44 40 36 30 18 11 16 18
267 265 263 265 267 264 263 258 259 257 258 256 261 254 249 247 245 239 228 220 223 214 210 203 199 195 193 199 222 233 261 279 305 322 326 335 346 352 351 343 346 352 356 0 3 5 11 13 23 26 24 27 29 41 50 61 75 93 113 123 133 129 136 129 116 119 119 115 107 101 100 93 78 65 59 53 51 39 33 25 18 12 9 10 12
270 269 268 269 268 266 268 265 263 263 261 257 265 261 253 248 244 244 237 224 228 225 214 211 209 209 207 215 227 242 260 282 304 321 324 330 340 346 344 337 340 344 348 350 354 357 2 8 11 13 16 21 22 23 40 50 49 80 95 116 125 136 137 134 127 118 114 102 97 79 77 65 52 44 44 49 42 30 23 19 16 8 5 10 7
276 271 268 268 267 271 269 267 268 270 266 262 265 264 257 251 249 246 243 234 230 230 226 217 217 219 217 222 230 244 258 280 300 316 327 331 332 339 334 333 335 341 347 349 349 350 355 0 3 2 2 7 15 11 12 35 39 45 77 123 147 155 138 132 137 123 108 100 95 94 59 53 37 21 30 37 38 30 19 12 7 2 2 9 9
280 276 273 273 270 272 273 271 267 267 265 260 257 261 261 258 254 252 248 244 237 232 234 226 223 226 226 225 234 246 261 281 294 312 320 323 325 327 331 329 332 335 345 351 352 352 356 357 359 358 357 359 9 8 355 356 356 40 358 95 157 149 151 156 160 120 91 90 83 72 67 27 17 22 13 20 26 18 21 17 8 354 356 5 6
290 285 280 275 272 276 274 273 268 262 259 255 254 258 261 259 255 252 251 251 246 239 237 237 231 231 233 232 236 247 262 278 295 306 314 319 319 320 321 323 332 337 343 348 354 354 353 356 2 359 354 350 357 1 352 326 300 294 267 271 256 237 189 187 189 201 129 93 84 80 37 360 353 8 12 11 15 7 2 5 3 351 355 1 3
296 295 290 286 280 275 271 269 266 263 260 257 257 256 259 259 256 253 253 251 247 245 239 242 241 239 241 240 243 251 265 278 287 299 309 319 318 320 321 325 329 333 338 346 346 345 346 349 357 6 342 337 350 347 346 280 283 280 267 255 252 253 248 231 221 228 211 127 101 45 28 358 343 346 357 0 7 3 351 2 9 0 351 354 351
296 299 299 295 286 277 272 267 267 267 263 263 259 257 258 258 259 258 256 253 249 245 243 242 247 248 248 249 249 252 262 271 285 308 310 309 316 312 314 319 325 326 327 331 337 336 337 343 353 1 344 329 333 339 348 321 272 262 260 262 259 251 248 242 237 234 221 183 131 47 30 351 335 332 335 345 350 352 357 356 4 358 354 354 352
297 302 300 297 291 285 278 274 272 270 268 265 263 260 257 255 253 253 254 253 249 247 247 250 248 252 254 254 257 256 264 272 294 303 313 319 309 309 309 314 321 324 324 319 320 325 328 335 344 344 321 304 311 330 337 344 336 324 283 239 229 232 235 239 240 233 218 207 209 248 335 352 336 325 327 331 333 339 338 338 354 0 360 354 357
293 294 295 294 295 295 288 282 278 275 271 268 267 263 260 257 253 255 257 258 250 251 253 252 249 251 254 258 260 260 266 279 293 304 311 315 307 298 307 310 314 318 319 319 315 318 326 329 333 332 330 327 313 303 319 335 340 334 323 298 270 219 229 232 227 223 224 214 213 222 216 252 297 310 315 314 314 318 326 340 352 3 19 1 347
282 286 291 294 297 298 293 290 285 281 278 273 269 266 263 262 263 262 264 257 254 250 251 255 255 252 254 261 263 266 265 281 292 303 308 311 315 303 299 309 314 316 317 317 315 311 311 315 322 322 316 322 316 311 294 308 329 349 342 333 310 289 257 238 250 239 221 217 212 217 246 246 265 294 302 306 304 325 336 347 346 344 4 11 350
278 284 286 291 295 297 295 294 293 288 283 278 274 272 271 269 268 263 259 257 255 254 256 257 255 257 255 256 260 263 269 280 294 301 307 310 313 304 299 309 314 314 315 314 308 310 312 312 317 321 321 312 302 302 288 289 300 314 318 303 290 284 276 281 266 270 265 244 230 230 254 266 276 284 295 296 309 327 335 342 334 339 359 5 342
273 278 282 287 293 295 294 295 295 292 289 286 280 277 274 269 269 264 261 262 260 256 255 256 255 258 261 260 261 264 263 280 294 300 304 308 309 301 303 303 300 302 306 309 305 306 310 314 319 321 316 315 305 302 288 282 289 301 312 315 310 284 265 264 269 269 272 277 292 299 282 288 284 282 294 311 325 324 323 321 323 326 333 342 348
271 277 280 288 294 294 294 293 294 294 293 290 287 283 277 272 271 266 261 261 258 257 255 253 257 260 261 263 263 266 266 281 293 298 301 303 301 287 298 300 295 291 297 302 303 300 305 309 310 316 313 312 311 311 298 277 285 318 317 309 300 291 272 270 283 282 281 285 294 298 303 307 304 303 297 299 302 319 320 321 316 322 331 336 342
270 278 283 286 289 291 292 293 295 296 295 293 292 288 282 277 272 267 266 262 263 261 260 258 253 257 261 262 263 262 264 275 289 294 295 297 286 282 291 290 291 296 293 297 299 303 304 304 307 305 311 311 307 305 304 292 293 315 311 299 286 275 263 254 283 300 300 300 313 329 318 321 312 314 324 317 301 294 301 315 326 322 326 331 332
269 275 280 285 286 288 289 292 294 295 294 297 294 288 284 277 275 270 268 265 263 262 260 257 256 256 261 264 267 264 264 273 288 290 293 295 293 287 284 285 289 290 293 298 292 293 301 311 307 308 307 304 305 305 301 294 296 317 316 305 292 284 272 260 250 272 304 314 317 318 323 309 273 270 296 312 315 308 316 328 328 319 323 325 327
270 276 280 281 283 284 286 289 292 295 297 298 293 289 285 279 274 269 267 264 260 258 259 259 259 258 260 264 265 270 264 271 289 291 295 298 294 283 281 281 285 288 291 293 295 291 290 297 309 307 304 299 294 298 301 298 298 305 317 305 298 288 275 263 260 255 269 274 275 281 284 299 305 302 309 329 338 330 325 334 331 325 322 321 324
272 271 272 276 279 280 281 286 290 294 295 292 289 286 281 277 276 273 269 265 262 259 262 261 263 260 260 263 263 273 272 265 281 293 296 299 304 285 277 279 282 289 290 290 289 290 291 288 297 312 318 311 291 291 299 307 299 302 306 310 296 291 276 273 263 257 260 271 279 286 291 292 298 308 314 320 322 325 331 332 330 325 322 321 324
266 267 271 276 278 281 280 284 290 292 288 287 286 287 284 281 276 273 271 267 265 263 264 263 263 261 260 261 263 271 272 272 278 296 297 301 306 295 278 280 282 283 286 287 288 285 283 286 284 302 316 318 315 306 302 310 305 297 311 305 296 267 257 261 263 259 263 266 270 275 285 294 298 302 309 315 321 323 330 329 327 326 318 317 319
266 268 271 275 277 279 280 281 285 283 282 283 285 287 285 282 275 273 267 265 266 266 263 261 261 262 261 263 261 264 271 285 271 294 299 302 303 306 282 283 282 282 285 284 286 282 277 276 280 293 309 316 319 316 315 309 312 292 306 307 271 254 259 261 262 267 269 271 277 286 292 295 296 303 312 315 316 323 312 311 314 308 310 314 316
266 267 268 270 272 277 278 281 281 277 280 285 288 288 283 281 275 270 266 265 265 266 265 264 263 262 262 262 260 261 263 273 280 280 295 299 303 308 307 287 285 284 283 287 286 283 280 278 280 291 302 309 313 317 317 321 304 289 304 297 290 275 269 275 272 272 273 277 282 289 290 293 300 307 313 313 311 298 302 305 306 311 312 314 317
262 265 265 267 270 274 276 279 279 277 282 283 285 284 282 277 271 266 264 263 262 263 263 266 264 263 262 261 261 261 261 257 272 285 286 301 299 310 315 314 281 282 288 288 289 295 298 292 274 290 305 310 312 313 316 311 293 306 313 315 307 281 274 278 280 282 282 284 288 290 289 294 303 309 309 301 294 293 299 303 308 311 314 315 317
259 260 263 265 268 270 273 274 278 279 281 284 285 283 282 277 269 264 263 262 261 262 265 266 265 261 256 255 255 255 254 256 252 276 293 298 304 309 316 327 330 303 286 294 284 278 271 277 272 282 302 308 311 304 296 300 308 298 303 304 295 288 290 287 287 285 285 286 286 289 292 298 302 304 295 288 291 295 302 306 309 310 312 316 318
255 255 257 259 265 269 273 276 278 279 282 281 282 279 277 272 265 261 260 261 259 259 261 262 261 257 252 248 246 247 248 242 241 255 268 285 294 309 318 325 331 328 315 306 320 283 279 278 285 291 292 292 298 305 312 308 318 312 298 292 292 295 295 296 295 293 289 289 291 293 295 297 301 295 288 290 295 302 304 304 304 307 310 312 313
250 249 252 256 261 266 272 272 273 275 279 278 279 277 271 264 260 259 258 257 257 255 254 252 251 249 245 241 240 238 237 237 237 241 256 257 260 271 282 289 307 311 302 304 307 296 301 300 290 289 285 297 286 282 285 292 297 298 301 301 301 298 297 298 296 295 292 289 293 296 297 297 291 288 294 297 300 302 303 304 306 308 308 310 312
245 246 251 253 257 263 268 270 271 271 276 276 274 270 263 259 258 258 255 252 250 249 246 244 242 243 242 243 242 242 242 242 244 250 260 265 267 271 280 286 289 292 300 305 308 312 307 288 289 295 290 293 295 297 297 298 301 302 303 304 304 304 295 285 288 289 292 295 294 292 291 283 290 296 300 302 301 301 301 301 301 303 306 308 312
240 244 248 252 255 259 263 264 265 266 268 269 257 242 242 254 256 248 246 242 239 240 242 237 239 238 243 246 246 245 246 249 251 246 265 276 279 281 285 289 288 292 303 307 299 297 297 300 298 299 297 297 300 303 306 305 304 303 302 300 298 299 295 296 299 300 300 296 297 291 292 294 297 300 300 299 298 297 297 300 302 303 304 307 312
239 243 247 251 256 260 259 260 262 263 265 262 249 242 236 235 227 231 239 227 230 226 229 234 235 236 241 244 240 242 241 243 248 252 267 283 278 279 286 290 294 289 290 296 288 287 292 296 298 300 300 301 304 306 307 309 309 307 301 295 293 294 294 296 300 301 298 296 296 295 296 297 298 298 297 297 297 298 299 300 302 302 304 307 310
236 242 248 251 256 257 256 256 257 254 256 257 253 251 245 234 230 229 231 232 234 236 234 231 230 228 231 243 238 239 250 254 254 257 260 264 267 271 281 288 290 287 281 280 285 292 291 294 298 299 298 302 303 305 305 307 307 306 300 294 292 290 287 290 293 292 291 292 292 292 294 295 295 295 295 296 296 297 299 302 302 303 306 307 308
235 242 247 249 250 250 249 250 251 249 250 255 253 252 249 247 238 231 230 232 234 236 236 234 233 233 233 236 244 241 240 251 258 259 261 263 265 268 272 279 282 280 288 291 290 295 296 295 297 299 300 301 301 301 303 302 298 297 295 293 290 289 286 288 285 287 287 287 288 289 290 291 291 292 293 293 293 294 298 300 302 303 303 304 306
236 240 243 246 247 246 243 243 245 248 250 256 254 252 253 251 248 244 236 234 236 238 235 235 235 236 237 240 239 248 253 254 258 261 263 265 266 266 268 272 279 282 284 284 284 286 288 290 292 295 297 300 301 300 298 296 293 290 289 290 291 292 291 285 280 286 286 285 284 286 287 286 286 286 289 290 293 296 299 300 300 301 302 305 307
230 232 237 240 244 244 239 240 242 246 245 250 252 253 252 252 250 249 249 246 242 240 239 237 235 238 242 243 250 253 255 257 259 261 262 262 265 267 267 261 263 275 278 278 280 283 288 292 294 295 296 293 289 288 289 287 286 287 287 289 292 293 290 285 287 288 289 282 282 283 284 285 286 288 290 291 293 296 297 299 301 302 303 304 304
217 219 222 231 239 238 238 240 241 241 243 244 248 251 249 247 250 252 253 252 251 252 251 244 239 236 240 245 247 253 257 258 259 262 264 266 267 269 265 265 266 264 268 277 286 291 291 289 281 278 280 284 284 283 282 282 280 280 281 282 282 289 292 293 296 295 292 288 287 286 286 286 286 285 285 287 291 296 299 298 299 300 303 304 304
224 227 227 217 214 219 225 230 232 236 240 242 245 249 252 253 255 255 256 257 258 257 254 247 245 244 245 242 245 251 256 258 261 263 267 270 273 272 269 271 274 278 281 285 282 273 272 275 281 281 280 278 279 281 281 278 278 278 281 285 284 287 290 290 290 292 294 295 293 285 285 289 287 282 282 288 294 295 296 299 301 301 300 302 nan
230 231 233 238 231 216 210 216 224 229 235 240 242 246 252 256 257 258 260 261 261 259 256 255 255 254 251 249 250 250 255 260 263 264 266 270 272 267 266 272 272 276 276 277 276 273 273 273 276 278 277 278 278 280 282 277 277 277 279 283 284 284 281 284 289 293 294 294 293 287 287 290 291 289 289 291 293 294 295 296 299 300 302 nan nan
230 228 226 230 238 225 215 221 224 229 233 237 238 241 248 253 257 255 258 258 260 261 261 262 262 261 260 257 257 255 257 259 261 260 261 262 264 265 262 262 266 272 273 274 274 275 274 274 274 276 276 274 272 275 278 276 276 279 282 284 285 282 282 285 285 291 293 294 293 290 289 287 285 284 287 292 294 296 299 300 299 301 nan 306 nan
228 227 231 230 221 223 226 228 228 230 235 237 241 245 248 251 258 260 259 260 261 262 263 263 261 260 259 260 259 261 261 260 261 263 265 265 264 262 264 268 267 264 264 266 270 273 275 274 273 273 273 271 271 270 272 274 275 279 281 283 284 284 287 288 290 291 293 295 293 290 288 287 285 284 285 289 295 299 299 298 300 301 nan nan nan
230 230 226 227 229 228 229 230 229 229 229 233 239 246 250 252 254 259 264 266 267 267 266 264 261 259 260 262 263 264 261 260 261 262 263 263 263 264 265 267 268 269 269 270 270 270 271 272 273 273 273 274 274 274 272 274 276 278 279 278 279 278 279 282 285 288 292 293 291 290 289 289 287 286 287 290 293 295 297 298 297 nan nan nan nan
231 232 231 228 230 235 231 228 230 232 231 233 237 240 245 251 256 261 266 270 272 271 268 262 258 254 250 250 244 239 256 262 259 259 261 261 259 259 264 266 267 267 268 268 267 268 269 270 271 272 273 273 274 274 274 273 272 271 271 273 274 276 278 280 283 287 287 289 290 290 289 289 289 289 290 291 293 nan nan nan nan nan nan nan nan
230 230 231 233 233 232 230 229 231 233 234 236 239 243 247 250 255 260 263 267 267 265 264 261 258 256 251 247 249 251 255 256 258 262 263 263 263 262 257 256 260 265 267 267 267 267 269 270 272 273 273 272 273 273 272 271 271 271 273 276 277 278 279 281 281 281 285 288 291 290 289 287 287 288 291 nan nan nan nan nan nan nan nan nan nan
231 234 235 237 237 235 233 233 234 236 238 239 240 241 244 248 252 255 258 258 259 259 260 260 259 257 254 249 252 256 260 261 263 263 263 264 265 266 264 262 260 260 262 262 263 267 269 268 267 264 263 262 262 262 262 263 265 273 276 272 268 274 282 279 279 278 277 282 287 287 286 289 291 293 nan nan nan nan nan nan nan nan nan nan nan
225 227 231 235 238 238 235 235 235 237 240 242 242 243 244 246 248 251 254 254 254 254 256 258 259 257 257 253 253 257 259 260 261 262 263 264 263 262 261 261 261 262 262 262 263 263 265 266 266 266 265 264 262 261 262 262 261 260 262 266 270 267 269 271 273 275 277 277 280 285 289 291 nan nan nan nan nan nan nan nan nan nan nan nan nan
nan nan nan nan nan 235 236 236 236 238 240 242 244 245 244 244 247 249 251 253 253 253 254 255 255 255 256 257 258 259 259 258 257 257 256 257 258 259 259 260 260 261 261 262 263 263 264 264 265 265 265 264 264 264 264 264 263 264 265 266 269 270 271 271 273 274 276 278 279 281 282 nan nan nan nan nan nan nan nan nan nan nan nan nan nan
nan nan nan nan nan nan nan 233 231 232 235 239 242 243 243 243 244 247 249 248 249 249 249 250 250 251 252 255 258 259 260 261 260 258 257 257 257 257 258 258 258 258 259 259 259 259 261 262 263 264 264 265 265 266 266 266 267 267 267 267 267 269 270 271 274 275 276 276 nan nan nan nan nan nan nan nan nan nan nan nan nan nan nan nan nan
nan nan nan nan nan nan nan nan nan 230 233 237 238 237 237 239 242 244 246 246 248 249 249 249 249 249 250 251 253 254 255 257 257 257 256 256 256 256 256 257 258 258 258 258 259 260 261 261 263 264 264 265 265 265 266 266 266 267 268 268 268 268 270 nan nan nan nan nan nan nan nan nan nan nan nan nan nan nan nan nan nan nan nan nan nan
nan nan nan nan nan nan nan nan nan 234 235 235 235 235 236 238 238 239 241 241 240 243 247 247 247 248 249 250 251 252 253 254 255 255 256 255 255 255 257 257 258 258 258 258 258 259 261 262 263 263 263 264 264 265 265 265 266 266 268 nan nan nan nan nan nan nan nan nan nan nan nan nan nan nan nan nan nan nan nan nan nan nan nan nan nan
nan nan nan nan nan nan nan nan nan nan 236 236 236 236 237 238 237 238 239 239 238 239 243 247 247 247 247 248 250 252 253 254 254 255 255 256 256 257 257 257 258 258 258 258 258 258 259 260 261 262 264 265 265 266 266 266 nan nan nan nan nan nan nan nan nan nan nan nan nan nan nan nan nan nan nan nan nan nan nan nan nan nan nan nan nan
nan nan nan nan nan nan nan nan nan nan nan nan 239 238 237 238 238 238 239 240 240 242 243 245 246 247 247 247 249 250 252 253 253 254 255 256 256 257 258 257 257 257 257 257 256 256 257 258 259 260 261 262 nan nan nan nan nan nan nan nan nan nan nan nan nan nan nan nan nan nan nan nan nan nan nan nan nan nan nan nan nan nan nan nan nan
nan nan nan nan nan nan nan nan nan nan nan nan nan nan 239 238 238 239 240 241 242 244 245 246 247 248 248 248 249 250 251 252 253 254 255 256 256 257 258 258 259 259 258 258 257 257 256 257 257 257 nan nan nan nan nan nan nan nan nan nan nan nan nan nan nan nan nan nan nan nan nan nan nan nan nan nan nan nan nan nan nan nan nan nan nan